EI4HQ Weather Reports


Display with metric or nautical units.
time (UTC)temp
F
wind
direction
speed
MPH
gust
MPH
rain 1hr
in
rain 24hr
in
rain mn
in
humidity
%
barometer
mb
20260503054503 50 339 6.0 8.0 0.00 0.04 0.00 90 1009.7
20260503053603 50 336 5.0 7.0 0.00 0.04 0.00 90 1009.7
20260503052703 50 336 5.0 7.0 0.00 0.04 0.00 90 1009.7
20260503051803 50 336 6.0 8.0 0.00 0.04 0.00 90 1009.7
20260503050903 49 338 6.0 8.0 0.00 0.04 0.00 90 1009.7
20260503050003 50 336 4.0 6.0 0.00 0.04 0.00 90 1009.7
20260503045403 50 339 3.0 5.0 0.00 0.04 0.00 90 1009.7
20260503044503 49 344 3.0 5.0 0.00 0.05 0.00 90 1009.8
20260503043603 49 335 4.0 7.0 0.00 0.05 0.00 90 1009.9
20260503042703 49 340 4.0 6.0 0.00 0.06 0.00 90 1009.9
20260503041803 49 337 4.0 5.0 0.00 0.06 0.00 90 1009.9
20260503040903 49 337 5.0 6.0 0.00 0.07 0.00 90 1009.9
20260503040003 49 338 4.0 6.0 0.00 0.07 0.00 90 1010.0
20260503035403 49 330 3.0 5.0 0.00 0.07 0.00 90 1010.0
20260503034503 49 332 3.0 6.0 0.00 0.08 0.00 90 1010.1
20260503033603 49 335 5.0 7.0 0.00 0.08 0.00 90 1010.1
20260503032703 49 333 4.0 7.0 0.00 0.08 0.00 90 1010.1
20260503031803 50 333 4.0 6.0 0.00 0.08 0.00 90 1010.1
20260503030903 50 333 5.0 7.0 0.00 0.08 0.00 90 1010.1
20260503030003 50 334 5.0 7.0 0.00 0.08 0.00 90 1010.0
20260503025403 50 335 5.0 6.0 0.00 0.08 0.00 90 1010.1
20260503024503 50 335 5.0 8.0 0.00 0.08 0.00 90 1010.1
20260503023603 50 336 5.0 6.0 0.00 0.08 0.00 90 1010.2
20260503022703 50 333 4.0 6.0 0.00 0.08 0.00 90 1010.1
20260503021803 49 333 2.0 4.0 0.00 0.08 0.00 90 1010.1
20260503020903 49 333 3.0 4.0 0.00 0.08 0.00 90 1010.1
20260503020003 49 333 3.0 5.0 0.00 0.08 0.00 89 1010.2
20260503015403 49 333 3.0 5.0 0.00 0.08 0.00 89 1010.3
20260503014503 50 333 3.0 5.0 0.00 0.08 0.00 90 1010.4
20260503013603 50 333 3.0 5.0 0.00 0.08 0.00 90 1010.4
20260503012703 50 333 3.0 5.0 0.00 0.08 0.00 90 1010.5
20260503011803 50 333 4.0 5.0 0.00 0.08 0.00 90 1010.6
20260503010903 50 333 4.0 5.0 0.00 0.08 0.00 89 1010.6
20260503010003 50 332 4.0 6.0 0.00 0.08 0.00 89 1010.6
20260503005403 50 330 4.0 6.0 0.00 0.08 0.00 89 1010.7
20260503004503 50 334 4.0 6.0 0.00 0.09 0.00 89 1010.7
20260503003603 50 336 4.0 6.0 0.00 0.09 0.00 89 1010.8
20260503002703 50 333 4.0 6.0 0.00 0.09 0.00 89 1010.8
20260503001803 50 325 2.0 4.0 0.00 0.09 0.00 89 1010.9
20260503000903 50 279 1.0 3.0 0.00 0.09 0.00 89 1010.9
20260503000003 50 0 0.0 0.0 0.00 0.09 0.00 89 1010.9
20260502235403 50 0 0.0 0.0 0.00 0.09 0.00 89 1011.0
20260502234503 50 250 0.0 1.0 0.00 0.09 0.00 89 1011.0
20260502233603 49 250 0.0 2.0 0.00 0.09 0.00 89 1011.1
20260502232703 49 250 1.0 3.0 0.00 0.09 0.00 89 1011.1
20260502231803 49 250 0.0 3.0 0.00 0.09 0.00 89 1011.1
20260502230903 49 250 0.0 1.0 0.00 0.09 0.00 89 1011.1
20260502230003 49 250 0.0 2.0 0.00 0.10 0.00 89 1011.1
20260502225403 49 250 0.0 2.0 0.00 0.10 0.10 89 1011.1
20260502224503 49 250 0.0 1.0 0.00 0.10 0.10 89 1011.2
20260502223603 49 250 0.0 1.0 0.00 0.10 0.10 89 1011.2
20260502222703 49 250 0.0 1.0 0.00 0.10 0.10 88 1011.3
20260502221803 49 234 1.0 3.0 0.00 0.10 0.10 88 1011.3
20260502220903 49 222 1.0 4.0 0.00 0.10 0.10 88 1011.3
20260502220003 49 222 0.0 2.0 0.00 0.10 0.10 88 1011.4
20260502215403 49 216 1.0 2.0 0.00 0.10 0.10 88 1011.3
20260502214503 49 188 0.0 2.0 0.00 0.10 0.10 88 1011.4
20260502213603 49 188 0.0 2.0 0.00 0.10 0.10 88 1011.4
20260502212705 49 0 0.0 0.0 0.00 0.10 0.10 88 1011.4
20260502211803 50 0 0.0 0.0 0.00 0.10 0.10 88 1011.4
20260502210903 50 0 0.0 0.0 0.00 0.10 0.10 87 1011.4
20260502210003 50 0 0.0 0.0 0.00 0.10 0.10 87 1011.4
20260502205403 50 0 0.0 0.0 0.00 0.10 0.10 87 1011.4
20260502204503 50 0 0.0 0.0 0.00 0.10 0.10 87 1011.3
20260502203603 51 188 0.0 3.0 0.00 0.10 0.10 87 1011.4
20260502202703 51 188 2.0 3.0 0.00 0.10 0.10 87 1011.3
20260502201803 51 174 2.0 4.0 0.00 0.10 0.10 87 1011.2
20260502200903 51 188 2.0 4.0 0.00 0.10 0.10 87 1011.2
20260502200003 51 187 1.0 3.0 0.00 0.10 0.10 87 1011.1
20260502195403 51 194 1.0 4.0 0.00 0.10 0.10 87 1011.0
20260502194503 51 184 2.0 4.0 0.00 0.10 0.10 87 1011.0
20260502193603 52 174 2.0 4.0 0.00 0.10 0.10 86 1011.1
20260502192703 52 170 2.0 4.0 0.00 0.10 0.10 87 1011.0
20260502191803 52 152 3.0 5.0 0.00 0.10 0.10 86 1011.1
20260502190903 52 171 3.0 5.0 0.00 0.10 0.10 86 1011.0
20260502190004 52 176 4.0 6.0 0.00 0.10 0.10 86 1011.2
20260502185403 52 180 3.0 6.0 0.00 0.10 0.10 86 1011.2
20260502184503 52 177 4.0 6.0 0.00 0.10 0.10 86 1011.2
20260502183603 52 164 4.0 7.0 0.00 0.10 0.10 86 1011.3
20260502182703 53 158 5.0 7.0 0.00 0.10 0.10 85 1011.3
20260502181803 53 157 6.0 8.0 0.00 0.10 0.10 85 1011.3
20260502180903 53 157 5.0 8.0 0.00 0.10 0.10 85 1011.2
20260502163603 54 177 4.0 8.0 0.00 0.10 0.10 85 1011.7
20260502162703 54 179 5.0 9.0 0.00 0.10 0.10 84 1011.7
20260502161803 54 173 6.0 9.0 0.00 0.10 0.10 84 1011.7
20260502160903 55 173 5.0 9.0 0.00 0.10 0.10 84 1011.6
20260502151803 55 161 6.0 10.0 0.00 0.10 0.10 85 1012.0
20260502150903 54 159 8.0 11.0 0.00 0.10 0.10 85 1012.1
20260502123603 54 158 9.0 13.0 0.00 0.10 0.10 88 1013.3
20260502122703 54 158 10.0 17.0 0.00 0.10 0.10 88 1013.4
20260502121803 55 158 10.0 14.0 0.00 0.10 0.10 88 1013.5
20260502120903 55 156 9.0 13.0 0.00 0.10 0.10 87 1013.6
20260502115403 56 148 8.0 12.0 0.00 0.10 0.10 86 1013.5
20260502114503 57 153 7.0 10.0 0.00 0.10 0.10 87 1013.5
20260502113603 56 147 9.0 12.0 0.00 0.10 0.10 87 1013.7
20260502112703 55 149 9.0 13.0 0.00 0.10 0.10 87 1013.8
20260502111803 56 151 8.0 13.0 0.00 0.10 0.10 87 1013.8
20260502110903 56 152 7.0 13.0 0.00 0.10 0.10 89 1013.9
20260502110003 55 151 8.0 13.0 0.00 0.10 0.10 89 1013.9
20260502105403 55 148 8.0 13.0 0.00 0.10 0.10 90 1014.0
20260502104503 54 147 9.0 13.0 0.00 0.10 0.10 89 1014.0
20260502103603 54 146 9.0 13.0 0.00 0.10 0.10 89 1014.0
20260502102703 54 151 8.0 12.0 0.00 0.10 0.10 88 1013.9
20260502101803 55 162 6.0 12.0 0.00 0.10 0.10 88 1014.0
20260502100903 55 175 7.0 10.0 0.00 0.10 0.10 90 1014.0
20260502090903 53 192 4.0 10.0 0.00 0.10 0.10 91 1014.3
20260502070903 52 179 8.0 15.0 0.03 0.11 0.10 92 1014.3
20260502070003 52 175 9.0 17.0 0.03 0.11 0.10 92 1014.2
20260502065403 52 175 9.0 13.0 0.04 0.11 0.10 92 1014.2
20260502064503 52 176 9.0 15.0 0.03 0.10 0.09 92 1014.3
20260502063603 52 175 9.0 15.0 0.02 0.09 0.09 92 1014.3